Location: Walnut Hills Mobile Home Park
(34.0445°N, 117.8184°W)
Time: 03:50:00
(UTC+00:00)

FengYun 1-2 T - Pass Details

Date: 17 December 2025
Orbit: 845 x 879 km, 98.8° (Epoch: 21 January)

Event Time Altitude Azimuth Distance (km) Brightness Sun altitude
Rises 12:58:03 0° 6° (N) 3,482 7.3 -22.6°
Reaches altitude 10° 13:00:31 10° 1° (N) 2,538 6.5 -22.1°
Maximum altitude 13:05:55 48° 288° (WNW) 1,129 4.4 -21.1°
Drops below altitude 10° 13:11:15 10° 215° (SW) 2,511 6.5 -20.0°
Sets 13:13:42 0° 210° (SSW) 3,441 7.2 -19.5°
